Wind_Speed
39 37 39 38 37 37 39 44 46 52 60 62 62 64 68 63 58 52 47 50 50 50 50 52 55 56 47 36 37 37 41 41 56 52 51 49 48 43 38 35 32 31 28 22
34 34 36 34 39 43 46 48 53 62 68 67 64 63 61 59 50 44 49 52 48 46 51 50 49 49 45 31 29 39 45 54 55 56 54 52 50 45 43 40 36 34 31 28
32 31 34 37 46 45 43 50 57 66 66 65 70 65 60 57 53 49 46 46 50 52 53 52 49 43 35 35 38 40 53 59 60 59 59 56 53 48 45 43 41 38 35 33
29 34 38 42 46 44 46 50 59 60 58 59 63 64 64 60 54 48 47 50 50 49 51 48 45 36 35 38 43 49 57 68 63 59 61 59 54 50 46 42 42 42 40 41
32 35 43 49 45 34 41 47 51 53 53 54 57 62 68 67 64 59 54 49 50 48 48 41 39 35 37 39 46 52 58 68 70 68 64 60 53 50 49 47 45 44 42 43
35 41 48 46 40 36 41 43 42 46 50 49 52 58 58 68 68 62 58 56 51 50 41 39 35 37 39 40 49 56 58 61 67 68 66 59 54 52 52 52 52 52 51 50
32 38 37 31 40 40 42 47 43 41 47 47 50 55 55 56 64 63 60 54 51 46 40 39 40 39 43 43 40 56 54 57 58 61 61 58 57 56 57 57 57 56 57 58
30 36 32 30 28 31 39 45 44 41 46 50 51 51 51 53 51 52 57 50 49 44 43 39 46 45 48 50 48 52 48 48 54 56 61 60 60 61 60 61 61 60 61 61
34 36 34 35 35 34 38 43 44 41 46 50 51 51 51 51 47 47 50 50 49 45 44 42 50 47 48 49 48 52 53 53 52 52 55 59 59 56 55 59 59 62 62 64
36 36 38 40 41 43 46 47 45 41 42 49 52 53 54 55 53 48 51 52 47 52 48 45 51 53 51 53 52 58 57 57 56 55 53 55 57 60 62 63 62 58 59 58
34 37 37 39 40 42 47 48 46 46 46 49 54 56 55 56 56 56 54 54 53 55 53 50 56 57 57 55 55 56 57 61 64 65 62 60 62 66 67 62 59 63 66 61
32 37 38 39 39 40 43 45 44 44 46 48 53 57 57 57 58 61 60 59 60 59 56 56 59 62 62 62 61 62 63 62 65 70 71 71 66 72 74 70 67 72 67 71
30 34 37 38 39 39 41 45 45 45 49 49 53 57 59 59 61 61 62 60 60 57 58 61 62 70 69 66 67 67 68 69 71 71 73 74 74 78 78 77 77 78 80 82
27 32 34 35 35 36 38 41 45 47 49 51 51 55 58 60 62 63 61 56 57 55 61 67 69 72 74 75 75 74 76 77 77 78 78 79 79 82 84 84 86 89 88 90
25 25 27 30 27 25 30 31 35 45 46 49 50 51 54 56 60 61 62 60 60 61 60 69 71 77 77 80 80 79 83 84 84 83 84 85 86 89 92 92 94 96 98 97
22 21 21 22 23 23 22 22 26 33 40 43 47 49 50 49 50 55 61 64 65 67 68 70 74 77 84 85 85 86 86 89 90 95 94 95 97 98 99 99 100 101 104 104
19 20 21 23 25 26 27 30 34 36 38 43 46 47 49 49 50 51 55 61 67 71 73 77 82 80 86 89 92 94 96 97 98 99 99 103 104 105 108 109 109 109 111 113
18 19 19 20 21 23 27 30 32 34 35 37 41 44 45 47 48 52 56 57 59 64 69 74 78 82 90 93 99 100 100 103 105 105 108 109 111 113 115 117 118 119 120 122
17 17 17 18 19 20 23 25 27 29 31 33 36 40 44 47 49 52 55 57 59 62 66 69 74 77 81 84 93 104 108 110 110 112 113 115 118 119 121 123 126 127 128 128
16 15 16 16 17 18 20 22 25 27 29 32 35 38 41 44 46 49 51 53 56 58 61 63 68 71 75 80 83 86 92 100 111 115 115 116 119 120 122 124 125 128 131 132
13 12 12 13 14 17 19 21 23 25 28 30 33 36 38 41 44 47 50 52 56 59 60 62 66 70 73 76 80 83 86 89 93 98 103 109 112 114 111 111 115 118 120 120
9 9 9 10 12 14 16 17 19 21 24 27 30 33 36 40 44 47 51 55 57 60 63 67 69 71 74 77 80 82 84 86 87 88 91 93 96 99 101 104 106 108 108 109
3 4 6 8 10 12 14 17 19 21 24 27 30 33 37 41 45 49 52 55 58 62 65 68 71 73 75 76 78 79 80 82 83 85 88 89 91 93 94 96 98 100 101 103
2 4 5 7 9 11 14 17 20 24 27 31 35 38 42 45 50 54 56 58 60 64 69 70 71 72 72 72 73 73 74 75 77 78 80 81 83 84 86 87 89 90 90 91
2 5 7 10 12 16 19 23 27 30 34 38 42 45 48 52 55 58 62 66 68 69 71 72 73 72 71 70 71 71 71 71 71 72 72 73 73 73 73 74 75 76 77 79
5 9 12 15 19 22 25 28 34 39 41 44 48 52 56 59 61 62 64 66 67 68 68 68 68 68 67 65 64 65 65 65 66 66 67 67 67 68 68 68 68 68 69 69
12 15 18 22 26 30 33 36 41 46 48 50 52 55 57 61 64 67 68 68 68 67 66 65 64 63 62 61 59 59 58 59 59 60 60 61 62 62 62 63 64 64 64 65
Wind_Direction
254 249 241 236 235 219 212 210 207 202 200 206 211 217 222 226 226 214 217 228 234 238 241 246 251 261 267 257 245 230 218 211 197 202 209 208 211 215 214 221 226 232 232 232
252 245 240 233 229 224 212 205 206 207 206 206 211 220 222 225 221 221 225 230 239 245 248 252 254 265 268 249 217 219 203 194 201 208 211 211 214 215 217 218 226 232 238 241
245 236 232 225 226 226 220 214 206 211 215 216 214 217 219 228 230 230 229 232 238 243 246 251 262 262 246 238 210 213 199 196 204 212 213 212 216 216 220 223 228 234 238 243
233 222 221 224 227 223 217 215 216 221 220 217 220 220 219 224 227 228 230 233 238 243 253 256 257 245 246 229 216 213 201 200 205 215 218 215 216 219 224 229 235 239 243 246
217 215 216 223 229 227 224 224 223 225 226 223 220 220 221 224 228 230 230 233 239 245 248 249 240 238 238 216 214 210 207 210 208 213 218 216 218 223 229 235 241 244 249 253
218 213 216 227 224 215 219 226 226 227 228 227 223 223 221 225 228 230 231 236 240 239 232 239 234 226 226 217 214 218 211 216 220 221 220 220 221 226 231 237 244 248 251 254
218 225 228 226 218 212 213 222 223 219 226 227 226 225 224 223 226 228 232 236 234 230 233 238 227 218 221 210 218 215 218 219 223 226 227 231 231 234 236 239 243 247 251 254
210 222 220 218 217 221 222 224 223 218 219 222 223 224 224 225 225 229 229 230 228 228 235 235 224 217 223 213 214 217 216 222 226 229 229 230 236 240 243 247 248 250 252 255
208 214 212 215 212 208 215 224 223 221 218 220 220 222 225 228 229 224 223 218 223 231 232 236 217 218 222 216 216 216 217 221 222 226 232 229 235 234 245 250 250 251 253 255
215 213 209 213 209 207 213 218 219 222 224 222 221 222 224 227 230 225 216 215 228 233 235 235 215 221 219 220 221 222 222 221 221 221 223 231 233 237 235 245 250 256 258 255
216 219 218 221 218 212 214 218 217 218 218 218 220 220 221 224 224 226 224 225 230 231 231 235 218 221 220 220 223 223 224 226 228 224 222 223 227 231 234 238 246 250 254 248
213 216 218 223 224 223 219 220 221 220 221 222 221 221 222 223 225 227 230 230 230 231 235 226 221 221 219 222 222 225 225 228 231 233 229 230 227 230 232 236 241 248 246 250
211 216 220 224 224 223 222 221 220 220 222 224 223 223 224 224 226 230 232 234 235 230 224 224 222 224 222 222 224 225 228 229 230 232 233 234 235 234 233 237 242 246 244 244
217 219 222 227 229 227 224 224 223 221 223 226 227 227 227 227 228 231 234 233 225 225 226 224 224 224 224 225 225 228 228 231 232 234 235 238 237 239 238 240 245 247 248 250
226 226 229 237 243 241 235 232 233 233 230 231 231 232 233 232 232 232 233 234 232 231 231 229 228 227 227 225 226 228 229 232 233 234 238 238 237 238 238 243 246 249 252 254
221 221 225 229 234 236 223 221 227 231 233 236 236 239 240 240 239 239 238 238 239 238 236 235 233 233 230 230 231 233 233 235 237 238 239 241 241 244 244 246 248 250 251 254
219 221 223 223 224 225 219 217 217 216 219 226 231 235 240 242 241 241 242 243 244 243 243 240 236 235 236 235 235 235 236 237 238 240 242 243 244 245 247 249 250 250 251 254
215 218 219 220 221 222 223 224 225 225 227 230 231 233 236 240 242 242 243 245 247 247 247 246 244 243 241 239 238 239 241 242 242 242 243 244 245 246 247 249 250 251 253 254
209 216 219 221 221 221 222 226 230 233 235 236 236 237 239 241 243 243 243 245 248 251 252 252 251 251 249 248 247 244 244 244 246 246 246 247 248 249 249 250 252 254 255 256
204 208 212 215 222 227 231 234 237 240 241 243 244 246 247 249 251 252 254 256 258 259 259 259 258 257 257 256 257 255 253 253 252 252 253 254 255 256 256 256 257 258 258 260
208 216 224 233 238 242 246 249 252 254 257 258 258 259 259 259 260 261 261 260 262 262 261 259 260 260 259 259 259 258 258 257 257 257 257 258 259 260 261 262 262 263 264 264
222 228 236 242 247 255 261 263 264 265 266 266 266 267 267 267 267 268 269 269 268 267 267 267 265 264 264 264 263 263 263 264 264 264 264 264 264 264 264 265 266 266 267 266
244 261 273 271 268 268 272 275 277 280 280 279 277 276 275 274 273 274 273 273 273 273 273 273 272 272 271 270 270 271 271 270 269 268 268 267 267 266 266 266 267 267 268 268
233 269 288 288 284 288 289 291 292 291 289 287 285 284 284 284 284 284 282 280 279 279 280 279 279 280 280 279 278 276 275 274 273 272 271 270 270 270 270 270 270 270 271 271
325 309 300 299 300 297 295 294 293 294 295 295 293 290 289 288 287 286 285 286 287 286 286 286 286 285 284 283 282 281 281 280 279 278 277 277 276 275 274 273 272 272 271 271
290 291 296 299 299 299 300 302 303 302 301 299 298 297 297 296 295 294 292 290 290 290 289 288 288 287 286 285 284 283 283 282 281 280 280 279 279 279 278 278 277 276 275 274
300 302 304 307 310 308 306 306 305 305 303 303 302 300 298 296 296 296 296 296 296 294 293 293 292 291 291 289 288 287 285 284 283 281 280 279 279 278 278 278 278 278 278 278
Height
10263 10270 10275 10281 10287 10296 10305 10314 10324 10331 10335 10340 10343 10349 10358 10370 10382 10396 10403 10409 10415 10420 10426 10430 10433 10437 10438 10439 10442 10444 10451 10461 10469 10474 10479 10487 10495 10501 10506 10510 10514 10517 10521 10525
10250 10257 10264 10274 10277 10284 10292 10301 10310 10316 10319 10328 10336 10342 10353 10364 10377 10386 10395 10401 10406 10411 10416 10420 10421 10424 10426 10427 10432 10437 10444 10453 10462 10466 10473 10480 10487 10492 10497 10502 10506 10509 10512 10516
10239 10249 10254 10261 10264 10273 10283 10290 10296 10303 10312 10317 10323 10334 10348 10358 10369 10377 10384 10390 10396 10401 10405 10408 10411 10412 10414 10417 10423 10429 10436 10444 10451 10457 10463 10470 10477 10484 10489 10494 10498 10502 10505 10508
10233 10238 10244 10249 10254 10264 10271 10279 10285 10289 10300 10313 10322 10331 10341 10350 10359 10366 10372 10378 10384 10389 10393 10398 10399 10401 10403 10408 10414 10420 10426 10433 10438 10448 10453 10460 10469 10476 10482 10487 10491 10494 10497 10499
10221 10230 10234 10237 10244 10258 10265 10270 10277 10285 10293 10303 10313 10323 10334 10339 10347 10355 10362 10368 10374 10380 10383 10386 10389 10392 10395 10400 10406 10412 10418 10425 10429 10434 10443 10453 10463 10470 10474 10478 10481 10484 10487 10489
10212 10218 10221 10228 10240 10249 10254 10262 10271 10279 10286 10295 10305 10313 10323 10330 10337 10345 10352 10358 10364 10370 10374 10377 10380 10384 10388 10392 10398 10403 10410 10418 10426 10432 10436 10445 10453 10458 10463 10467 10470 10472 10475 10477
10207 10209 10215 10223 10233 10243 10249 10250 10259 10270 10277 10285 10294 10303 10311 10320 10327 10334 10341 10348 10354 10358 10364 10368 10371 10376 10380 10383 10391 10397 10403 10409 10416 10423 10432 10438 10442 10446 10450 10453 10456 10459 10462 10464
10199 10200 10210 10218 10229 10237 10241 10244 10251 10259 10266 10276 10284 10291 10300 10309 10316 10322 10330 10338 10343 10349 10353 10358 10361 10365 10370 10374 10378 10386 10393 10399 10405 10411 10418 10423 10429 10434 10436 10439 10441 10444 10447 10449
10191 10196 10204 10210 10218 10228 10234 10239 10245 10253 10259 10266 10274 10282 10290 10298 10306 10312 10319 10326 10332 10338 10343 10347 10351 10356 10360 10365 10369 10375 10381 10386 10392 10398 10404 10408 10412 10414 10417 10420 10424 10427 10429 10431
10183 10189 10197 10202 10209 10217 10223 10228 10236 10245 10252 10258 10264 10272 10279 10287 10294 10301 10308 10315 10320 10327 10331 10336 10340 10346 10350 10354 10358 10363 10368 10373 10378 10381 10387 10392 10396 10400 10402 10405 10409 10410 10411 10412
10181 10184 10191 10196 10202 10209 10214 10220 10227 10234 10240 10245 10253 10260 10267 10274 10281 10289 10296 10303 10308 10314 10320 10324 10328 10333 10338 10342 10347 10352 10357 10362 10366 10369 10371 10374 10377 10380 10384 10388 10391 10392 10394 10394
10178 10181 10186 10190 10196 10202 10207 10213 10220 10227 10232 10238 10242 10248 10255 10262 10268 10276 10283 10289 10295 10300 10305 10310 10314 10319 10324 10328 10332 10336 10342 10346 10351 10354 10356 10359 10360 10363 10365 10368 10369 10372 10374 10375
10171 10176 10181 10185 10189 10194 10199 10205 10211 10217 10222 10228 10232 10238 10244 10250 10256 10263 10270 10276 10281 10285 10290 10295 10300 10306 10309 10312 10317 10320 10325 10329 10333 10336 10339 10340 10342 10345 10347 10348 10350 10351 10352 10353
10166 10170 10174 10178 10182 10187 10192 10198 10203 10207 10213 10218 10224 10229 10233 10239 10244 10251 10256 10262 10267 10271 10274 10278 10283 10288 10292 10296 10299 10302 10306 10310 10313 10316 10319 10321 10323 10325 10325 10328 10329 10330 10331 10331
10160 10164 10169 10173 10177 10181 10186 10192 10197 10202 10206 10210 10214 10218 10223 10227 10232 10238 10243 10248 10253 10256 10260 10264 10267 10270 10274 10278 10281 10284 10287 10290 10293 10296 10298 10298 10299 10300 10302 10304 10305 10305 10306 10305
10156 10159 10163 10167 10171 10174 10178 10183 10188 10193 10198 10203 10207 10211 10214 10218 10222 10226 10230 10234 10237 10240 10244 10247 10252 10254 10256 10259 10261 10264 10266 10268 10270 10273 10275 10276 10277 10275 10276 10277 10277 10278 10278 10277
10150 10154 10158 10162 10165 10168 10172 10174 10177 10181 10184 10189 10194 10198 10202 10206 10210 10212 10215 10217 10220 10223 10225 10228 10230 10232 10237 10240 10241 10241 10242 10242 10244 10248 10250 10251 10251 10251 10249 10251 10251 10250 10250 10247
10149 10152 10154 10157 10160 10163 10166 10169 10173 10176 10180 10182 10185 10188 10191 10194 10196 10198 10200 10202 10203 10204 10206 10208 10210 10212 10214 10214 10215 10217 10220 10220 10220 10222 10222 10221 10222 10223 10222 10219 10220 10221 10220 10217
10146 10148 10150 10153 10155 10158 10161 10164 10167 10170 10172 10174 10176 10178 10180 10181 10182 10183 10184 10186 10187 10187 10187 10188 10190 10190 10191 10190 10191 10192 10193 10191 10190 10192 10191 10192 10192 10192 10192 10191 10189 10186 10186 10186
10144 10147 10149 10151 10153 10155 10157 10159 10161 10163 10164 10165 10167 10168 10170 10171 10172 10174 10175 10176 10175 10174 10173 10174 10172 10172 10170 10168 10167 10167 10167 10166 10164 10163 10161 10162 10160 10159 10160 10158 10157 10157 10154 10151
10144 10146 10148 10150 10151 10152 10154 10155 10157 10158 10159 10160 10160 10161 10162 10162 10161 10160 10160 10159 10155 10152 10151 10152 10148 10147 10145 10142 10139 10136 10135 10134 10131 10128 10127 10126 10127 10125 10122 10122 10122 10120 10119 10116
10143 10145 10146 10148 10149 10150 10151 10151 10152 10153 10153 10153 10152 10151 10150 10149 10147 10145 10142 10139 10137 10133 10131 10126 10125 10122 10119 10115 10111 10108 10105 10103 10102 10100 10096 10095 10094 10091 10089 10086 10085 10084 10083 10080
10142 10143 10144 10146 10146 10146 10146 10146 10145 10145 10144 10143 10141 10138 10136 10133 10130 10126 10124 10120 10116 10111 10107 10103 10098 10094 10091 10088 10085 10082 10079 10076 10073 10070 10065 10063 10060 10057 10056 10053 10050 10048 10046 10044
10139 10140 10141 10142 10142 10141 10140 10139 10137 10135 10134 10131 10128 10125 10122 10119 10113 10107 10103 10100 10096 10090 10081 10076 10071 10067 10063 10059 10054 10050 10047 10044 10040 10037 10034 10031 10029 10027 10024 10021 10018 10016 10014 10012
10137 10138 10138 10138 10137 10136 10134 10132 10130 10127 10124 10120 10116 10111 10107 10102 10098 10093 10084 10076 10069 10064 10058 10052 10046 10041 10037 10032 10026 10021 10017 10013 10009 10006 10003 10000 9997 9995 9993 9991 9989 9987 9985 9983
10136 10136 10134 10133 10131 10129 10128 10125 10120 10115 10112 10109 10102 10095 10087 10080 10073 10067 10061 10054 10048 10040 10034 10028 10021 10014 10009 10005 10001 9996 9991 9986 9982 9978 9975 9972 9969 9966 9963 9961 9959 9957 9955 9954
10132 10131 10130 10128 10126 10123 10119 10115 10111 10104 10099 10093 10087 10080 10073 10064 10055 10045 10037 10030 10022 10014 10007 10002 9996 9990 9984 9979 9975 9971 9967 9963 9959 9955 9952 9949 9945 9942 9940 9937 9934 9932 9930 9928